Wautoma, WI

6:16 PM CST on December 03, 2016 (GMT -0600)
Wautoma

Weather History for KY50 - May, 2013

Change the Weather History Date:

Wednesday, May 15, 2013

  Actual Average (KPCZ) Record (KPCZ)
Temperature  
Mean Temperature 66 °F -  
Max Temperature 75 °F 69 °F 89 °F (1991)
Min Temperature 54 °F 44 °F 30 °F (2016)
Growing Degree Days 16 (Base 50)    
Moisture  
Dew Point 39 °F    
Average Humidity 38    
Maximum Humidity 60    
Minimum Humidity 22    
Precipitation  
Precipitation 0.00 in - - ()
Sea Level Pressure  
Sea Level Pressure 29.77 in    
Wind  
Wind Speed 10 mph (WNW)    
Max Wind Speed 16 mph    
Max Gust Speed 24 mph    
Visibility 10 miles    
Events      
Averages and records for this station are not official NWS values.
T = Trace of Precipitation, MM = Missing Value Source: NWS Daily Summary

Daily Weather History Graph

Daily Weather History Graph

Search for Another Location

Airport or City:

Trip Planner

Search our weather history database for the weather conditions in past years. The results will help you decide how hot, cold, wet, or windy it might be!

Date:

Astronomy

May. 15, 2013 Rise Set
Actual Time 5:30 AM CDT 8:17 PM CDT
Civil Twilight 4:57 AM CDT 8:50 PM CDT
Nautical Twilight 4:15 AM CDT 9:33 PM CDT
Astronomical Twilight 3:26 AM CDT 10:22 PM CDT
Moon 10:08 AM CDT (5/15) 12:01 AM CDT (5/15)
Length of Visible Light 15h 53m
Length of Day
14h 46m
Waxing Crescent, 27% of the Moon is Illuminated
May 15
Waxing Crescent
May 17
First Quarter
May 24
Full
May 31
Last Quarter
Jun 8
New

Hourly Weather History & Observations

Time (CDT) Temp. Dew Point Humidity Pressure Visibility Wind Dir Wind Speed Gust Speed Precip Events Conditions
12:56 AM 75.2 °F 46.4 °F 36% 29.58 in 10.0 mi West 11.5 mph - N/A   Clear
1:56 AM 70.0 °F 38.8 °F 32% 29.58 in 10.0 mi WNW 10.4 mph - N/A   Clear
2:56 AM 65.8 °F 36.9 °F 34% 29.60 in 10.0 mi West 6.9 mph - N/A   Clear
3:56 AM 64.4 °F 37.4 °F 37% 29.65 in 10.0 mi West 8.1 mph - N/A   Clear
4:56 AM 63.0 °F 41.0 °F 45% 29.67 in 10.0 mi WNW 9.2 mph - N/A   Clear
5:56 AM 59.9 °F 41.9 °F 51% 29.69 in 10.0 mi WNW 9.2 mph - N/A   Clear
6:56 AM 62.6 °F 46.4 °F 55% 29.75 in 10.0 mi NW 11.5 mph - N/A   Clear
7:56 AM 64.9 °F 45.9 °F 50% 29.77 in 10.0 mi NW 12.7 mph 21.9 mph N/A   Clear
8:56 AM 65.8 °F 45.0 °F 47% 29.82 in 10.0 mi NNW 13.8 mph 19.6 mph N/A   Clear
9:56 AM 68.9 °F 43.9 °F 40% 29.83 in 10.0 mi NNW 13.8 mph 21.9 mph N/A   Clear
10:56 AM 70.9 °F 36.9 °F 29% 29.83 in 10.0 mi North 16.1 mph 24.2 mph N/A   Clear
11:56 AM 72.0 °F 36.9 °F 28% 29.82 in 10.0 mi NNW 11.5 mph 23.0 mph N/A   Clear
12:56 PM 72.9 °F 36.0 °F 26% 29.83 in 10.0 mi NNW 12.7 mph 19.6 mph N/A   Clear
1:56 PM 70.9 °F 36.0 °F 28% 29.82 in 10.0 mi NW 8.1 mph - N/A   Partly Cloudy
2:56 PM 70.0 °F 37.9 °F 31% 29.83 in 10.0 mi West 11.5 mph - 0.00 in   Partly Cloudy
3:56 PM 73.9 °F 36.9 °F 26% 29.81 in 10.0 mi WSW 12.7 mph 19.6 mph 0.00 in   Clear
4:56 PM 73.9 °F 32.9 °F 22% 29.79 in 10.0 mi WNW 10.4 mph 16.1 mph N/A   Clear
5:56 PM 73.9 °F 34.9 °F 24% 29.79 in 10.0 mi NNW 11.5 mph - N/A   Clear
6:56 PM 73.4 °F 35.6 °F 25% 29.81 in 10.0 mi WNW 9.2 mph - N/A   Clear
7:56 PM 70.0 °F 37.9 °F 31% 29.81 in 10.0 mi West 5.8 mph - N/A   Clear
8:56 PM 61.0 °F 38.8 °F 44% 29.82 in 10.0 mi WSW 6.9 mph - N/A   Clear
9:56 PM 59.0 °F 39.2 °F 48% 29.85 in 10.0 mi SW 6.9 mph - N/A   Clear
10:56 PM 56.8 °F 39.9 °F 53% 29.83 in 10.0 mi West 4.6 mph - N/A   Clear
11:56 PM 54.9 °F 41.0 °F 60% 29.84 in 10.0 mi WSW 3.5 mph - N/A   Clear